Regional Weather Roundup
Issued by NWS Jackson, KY

Home | Current Version | Previous Version | Text Only | Print | Product List | Glossary Off
Versions: 1 2 3 4 5 6 7 8 9 10 11 12 13 14 15 16 17 18 19 20 21 22 23 24 25 26 27 28 29 30 31 32 33 34 35 36 37 38 39 40 41 42 43 44 45 46 47 48 49 50

000
ASUS43 KJKL 011410
RWRJKL

EAST KENTUCKY HOURLY WEATHER ROUNDUP
NATIONAL WEATHER SERVICE JACKSON KY
1000 AM EDT WED APR 01 2015

NOTE: "FAIR" INDICATES FEW OR NO CLOUDS BELOW 12,000 FEET WITH
NO SIGNIFICANT WEATHER AND/OR OBSTRUCTIONS TO VISIBILITY.

* THESE REPORTS ARE NOT UNDER NWS QUALITY CONTROL AND MAY NOT
  REPORT WEATHER SUCH AS PRECIPITATION AND FOG.

KYZ079-080-083-085-087-088-110-112-115-119-120-011500
...EASTERN KENTUCKY...

CITY           SKY/WX    TMP DP  RH WIND       PRES   REMARKS
JACKSON        SUNNY     46  34  62 CALM      30.16R
LONDON         SUNNY     51  33  50 MISG      30.15R
SOMERSET*      SUNNY     50  36  57 E5        30.15S
MONTICELLO*    SUNNY     53  38  56 SE9       30.16S
MIDDLESBORO*   SUNNY     51  38  61 CALM      30.15S
HAZARD APT*    SUNNY     48  36  61 CALM      30.17R
BLACK MTN*       N/A     43  25  49 N5          N/A
PIKEVILLE APT* SUNNY     45  34  65 CALM      30.16R
BIG SANDY*     SUNNY     46  36  67 CALM      30.16R
MOREHEAD APT*  SUNNY     45  34  65 SE5       30.18R
$$

KYZ035-036-041-042-044-050-067-078-099-011500
...CENTRAL KENTUCKY...

CITY           SKY/WX    TMP DP  RH WIND       PRES   REMARKS
MT STERLING*   SUNNY     46  36  66 CALM      30.18R
FLEMING/MASON* SUNNY     45  36  70 S6        30.17R
DANVILLE*      SUNNY     50  37  62 SE6       30.15S
RICHMOND*      SUNNY     48  36  61 CALM      30.15R
LEXINGTON      SUNNY     49  36  61 S8        30.16R
FRANKFORT      SUNNY     49  37  63 S3        30.15R
$$

KYZ091>093-OHZ055-061-077-WVZ005-015-034-035-042-011500
...SOUTHERN OHIO/WEST VIRGINIA...

CITY           SKY/WX    TMP DP  RH WIND       PRES   REMARKS
COVINGTON      SUNNY     47  35  63 S9        30.15R
COLUMBUS       SUNNY     39  32  76 S8        30.14R WCI  33
DAYTON         SUNNY     46  35  65 S9        30.13R
WILMINGTON     SUNNY     43  34  70 S14       30.13R
HUNTINGTON     SUNNY     44  34  67 CALM      30.16R
CHARLESTON     SUNNY     44  33  65 CALM      30.16R
PINEVILLE*     SUNNY     47  38  69 MISG      30.19R
BECKLEY        SUNNY     42  29  59 CALM      30.13R
BLUEFIELD      SUNNY     45  29  53 W6        30.12R
$$

VAZ002-007-008-TNZ017-027-036-066-071-011500
...SOUTHWEST VIRGINIA/EAST TENNESSEE...

CITY           SKY/WX    TMP DP  RH WIND       PRES   REMARKS
WISE*          SUNNY     46  28  49 CALM      30.14R
JONESVILLE*    SUNNY     52  36  54 N3        30.15S
ABINGDON*      SUNNY     51  33  48 CALM      30.13R
BRISTOL        SUNNY     53  33  46 CALM      30.13R
KNOXVILLE      MOSUNNY   57  36  45 NE10      30.10R
OAK RIDGE      SUNNY     60  35  39 NE7       30.12S
CROSSVILLE     SUNNY     54  31  41 E8        30.11S
NASHVILLE      PTSUNNY   60  34  37 E7        30.10S
$$

...KEY TO REMARKS...
VSB - VISIBILITY IN MILES
WCI - WIND CHILL INDEX
HX  - HEAT INDEX

$$



USA.gov is the U.S. government's official web portal to all federal, state and local government web resources and services.